Weather reports worldwide

Advertisment
Kinloss, United Kingdom (3066): temperature & dewpoint: 16.09.2018 14:00:00 - 22.09.2018 14:00:00 (BST)Kinloss, United Kingdom (3066): temperature -20cm & temperature -100cm: 16.09.2018 14:00:00 - 22.09.2018 14:00:00 (BST)Kinloss, United Kingdom (3066): wind speed & gusts: 16.09.2018 14:00:00 - 22.09.2018 14:00:00 (BST)Kinloss, United Kingdom (3066): wind direction: 16.09.2018 14:00:00 - 22.09.2018 14:00:00 (BST)Kinloss, United Kingdom (3066): reduced air pressure: 16.09.2018 14:00:00 - 22.09.2018 14:00:00 (BST)Kinloss, United Kingdom (3066): visibility: 16.09.2018 14:00:00 - 22.09.2018 14:00:00 (BST)Kinloss, United Kingdom (3066): sunshine duration: 16.09.2018 14:00:00 - 22.09.2018 14:00:00 (BST)Kinloss, United Kingdom (3066): precipitation: 16.09.2018 14:00:00 - 22.09.2018 14:00:00 (BST)
Date & Time tt [°C] td [°C] tt -20cm [°C] tt -100cm [°C] ff [km/h] ff [kn] fx [km/h] fx [kn] dd ppp [hPa] vv [km] sd [min] rr [mm]
22.09.2018 14:00:00 11,8 5,3 - - 31 17 48 26 W 1011,2 65 12 0,0
22.09.2018 13:00:00 10,7 7,6 - - 31 17 - - W 1010,4 60 6 0,4
22.09.2018 12:00:00 11,1 6,2 - - 28 15 - - WSW 1009,7 45 6 0,0
22.09.2018 11:00:00 10,9 6,3 - - 29 16 - - WSW 1009,2 50 6 0,0
22.09.2018 10:00:00 9,8 6,2 12,7 12,5 28 15 - - WSW 1008,7 28 0 0,0
22.09.2018 09:00:00 9,2 5,6 - - 26 14 50 27 WSW 1008,2 55 0 0,0
22.09.2018 08:00:00 9,0 5,3 - - 31 17 48 26 WSW 1007,4 50 0 0,0
22.09.2018 07:00:00 9,0 3,7 - - 31 17 55 30 WSW 1006,6 45 0 0,0
22.09.2018 06:00:00 8,7 3,7 - - 37 20 59 32 WSW 1005,5 50 0 0,0
22.09.2018 05:00:00 8,6 4,3 - - 31 17 48 26 WSW 1005,5 60 0 0,0
22.09.2018 04:00:00 7,9 4,5 - - 24 13 - - SW 1005,4 50 0 0,0
22.09.2018 03:00:00 8,4 4,8 - - 29 16 46 25 WSW 1005,1 55 0 0,0
22.09.2018 02:00:00 8,3 5,0 - - 24 13 - - WSW 1005,1 55 0 0,0
22.09.2018 01:00:00 7,7 4,6 - - 24 13 - - SW 1004,5 45 - 0,0
22.09.2018 00:00:00 7,8 3,9 - - 18 10 - - SW 1004,4 55 0 0,0
21.09.2018 23:00:00 8,0 4,6 - - 22 12 - - WSW 1004,2 60 0 0,0
21.09.2018 22:00:00 8,9 4,9 - - 26 14 - - WSW 1003,7 60 0 0,0
21.09.2018 21:00:00 9,1 4,9 - - 21 11 - - WSW 1003,4 60 0 0,0
21.09.2018 20:00:00 8,7 4,6 - - 16 9 - - WSW 1002,8 60 0 0,0
21.09.2018 19:00:00 10,0 4,5 - - 26 14 - - WSW 1002,3 65 36 0,0
21.09.2018 18:00:00 11,3 4,3 - - 29 16 50 27 W 1001,8 60 18 0,0
21.09.2018 17:00:00 11,6 4,6 - - 29 16 46 25 W 1000,8 55 30 0,0
21.09.2018 16:00:00 11,5 4,7 - - 31 17 52 28 WNW 1000,2 45 36 0,0
21.09.2018 15:00:00 12,1 6,5 - - 31 17 - - WNW 999,0 45 18 0,0
21.09.2018 14:00:00 11,1 6,3 - - 34 18 50 27 WNW 997,9 45 24 0,0
21.09.2018 13:00:00 9,6 7,5 - - 29 16 46 25 WNW 996,6 35 0 0,0
21.09.2018 12:00:00 9,3 7,6 - - 26 14 - - W 995,3 45 0 0,2
21.09.2018 11:00:00 9,0 7,8 - - 21 11 - - WNW 994,1 19 0 0,4
21.09.2018 10:00:00 8,4 7,1 12,9 12,7 34 18 50 27 W 992,7 23 0 1,4
21.09.2018 09:00:00 7,8 6,9 - - 31 17 46 25 WNW 991,9 7 0 1,6
21.09.2018 08:00:00 8,6 7,1 - - 28 15 - - W 991,1 29 0 0,2
21.09.2018 07:00:00 7,9 7,0 - - 18 10 - - WSW 990,7 30 0 0,8
21.09.2018 06:00:00 7,5 7,0 - - 13 7 - - SW 991,1 6 0 2,0
21.09.2018 05:00:00 8,1 7,3 - - 15 8 - - W 991,5 10 0 0,2
21.09.2018 04:00:00 8,8 6,6 - - 15 8 - - W 992,1 35 0 0,0
21.09.2018 03:00:00 8,3 5,7 - - 13 7 - - WSW 992,7 40 0 0,0
21.09.2018 02:00:00 7,7 5,4 - - 9 5 - - WSW 993,7 45 0 0,0
21.09.2018 01:00:00 8,8 4,9 - - 9 5 - - SSW 994,4 45 - 0,0
21.09.2018 00:00:00 9,2 4,9 - - 9 5 - - SSW 995,3 45 0 0,0
20.09.2018 23:00:00 9,4 5,2 - - 8 4 - - SSW 996,1 45 0 0,0
20.09.2018 22:00:00 9,5 4,7 - - 5 3 - - S 996,7 45 0 0,0
20.09.2018 21:00:00 9,9 4,8 - - 11 6 - - SSW 997,6 45 0 0,0
20.09.2018 20:00:00 10,6 4,6 - - 8 4 - - SSW 997,8 50 0 0,0
20.09.2018 19:00:00 11,6 4,8 - - 9 5 - - SSW 998,2 45 0 0,0
20.09.2018 18:00:00 12,5 4,7 - - 16 9 - - SSW 999,1 50 0 0,0
20.09.2018 17:00:00 13,3 4,3 - - 21 11 - - SSW 999,0 40 0 0,0
20.09.2018 16:00:00 13,8 4,4 - - 26 14 52 28 SW 999,3 45 0 0,0
20.09.2018 15:00:00 14,3 4,8 - - 35 19 61 33 WSW 999,0 50 54 0,0
20.09.2018 14:00:00 14,3 4,7 - - 44 24 72 39 SW 998,6 50 60 0,0
20.09.2018 13:00:00 14,0 4,9 - - 46 25 78 42 WSW 997,9 45 60 0,0
20.09.2018 12:00:00 13,7 4,3 - - 65 35 87 47 SW 996,5 40 60 0,0
20.09.2018 11:00:00 12,6 4,8 - - 59 32 87 47 SW 996,8 40 60 0,0
20.09.2018 10:00:00 12,1 4,7 13,0 12,7 48 26 70 38 SW 996,6 35 60 0,0
20.09.2018 09:00:00 11,1 4,6 - - 35 19 68 37 SSW 996,7 35 54 0,0
20.09.2018 08:00:00 10,0 4,2 - - 34 18 55 30 SSW 997,0 45 36 0,0
20.09.2018 07:00:00 9,4 4,7 - - 34 18 54 29 SSW 996,3 40 0 0,0
20.09.2018 06:00:00 10,2 4,2 - - 34 18 67 36 SSW 996,3 50 0 0,0
20.09.2018 05:00:00 10,0 4,6 - - 34 18 52 28 SSW 996,1 50 0 0,0
20.09.2018 04:00:00 9,9 4,6 - - 34 18 57 31 SSW 995,8 60 0 0,0
20.09.2018 03:00:00 9,6 4,6 - - 31 17 54 29 SSW 995,3 50 0 0,0
20.09.2018 02:00:00 8,1 4,7 - - 29 16 63 34 SSW 995,0 60 0 0,0
20.09.2018 01:00:00 8,5 3,9 - - 34 18 57 31 SSW 994,8 60 - 0,0
20.09.2018 00:00:00 8,7 4,5 - - 28 15 74 40 SSW 994,4 55 0 0,0
19.09.2018 23:00:00 9,7 4,8 - - 41 22 65 35 SW 994,3 55 0 0,0
19.09.2018 22:00:00 9,4 4,8 - - 39 21 63 34 SW 993,7 60 0 0,0
19.09.2018 21:00:00 9,8 5,3 - - 37 20 54 29 SW 993,2 45 0 0,0
19.09.2018 20:00:00 9,6 5,1 - - 42 23 74 40 SW 991,8 40 0 0,0
19.09.2018 19:00:00 10,5 4,9 - - 44 24 76 41 SW 990,1 55 24 0,0
19.09.2018 18:00:00 11,7 5,1 - - 44 24 85 46 SW 988,7 55 54 0,0
19.09.2018 17:00:00 12,5 7,1 - - 52 28 87 47 SW 985,9 65 18 0,0
19.09.2018 16:00:00 12,8 7,5 - - 52 28 83 45 WSW 981,8 65 24 0,0
19.09.2018 15:00:00 13,8 8,7 - - 41 22 65 35 SSW 979,0 35 48 0,2
19.09.2018 14:00:00 13,8 9,8 - - 42 23 68 37 SSW 978,8 55 30 2,6
19.09.2018 13:00:00 16,3 11,2 - - 35 19 61 33 S 977,8 55 18 1,8
19.09.2018 12:00:00 13,7 9,4 - - 26 14 48 26 ESE 981,2 40 30 0,0
19.09.2018 11:00:00 11,0 7,1 - - 18 10 - - ESE 986,2 35 0 0,0
19.09.2018 10:00:00 11,3 5,9 13,5 12,7 5 3 - - E 989,9 45 0 0,0
19.09.2018 09:00:00 11,5 5,7 - - 16 9 59 32 SSW 992,2 50 0 0,0
19.09.2018 08:00:00 11,2 6,3 - - 26 14 - - SW 992,5 55 0 0,0
19.09.2018 07:00:00 10,7 7,0 - - 28 15 59 32 SSW 994,2 55 0 0,0
19.09.2018 06:00:00 10,3 7,3 - - 24 13 - - SSW 994,3 60 0 0,0
19.09.2018 05:00:00 8,7 6,2 - - 11 6 - - WSW 994,6 55 0 0,0
19.09.2018 04:00:00 8,9 6,0 - - 24 13 - - S 994,3 60 0 0,0
19.09.2018 03:00:00 8,4 5,6 - - 26 14 100 54 SSW 993,9 60 0 1,6
19.09.2018 02:00:00 12,4 7,7 - - 21 11 - - S 993,5 35 0 0,0
19.09.2018 01:00:00 11,8 8,1 - - 15 8 - - SSE 993,3 55 - 0,0
19.09.2018 00:00:00 11,2 8,5 - - 8 4 - - SSE 994,2 60 0 0,0
18.09.2018 23:00:00 12,9 9,5 - - 26 14 50 27 SSW 994,6 60 0 0,0
18.09.2018 22:00:00 12,9 10,9 - - 16 9 - - SW 994,4 55 0 0,2
18.09.2018 21:00:00 12,7 10,3 - - 13 7 - - SW 994,5 60 0 0,0
18.09.2018 20:00:00 14,2 10,3 - - 15 8 - - SSW 994,3 65 6 0,0
18.09.2018 19:00:00 15,0 10,4 - - 35 19 55 30 SW 993,6 70 42 0,0
18.09.2018 18:00:00 16,0 10,9 - - 34 18 61 33 SW 992,8 65 54 0,0
18.09.2018 17:00:00 16,3 12,6 - - 31 17 - - SW 991,8 65 24 0,2
18.09.2018 16:00:00 12,9 12,7 - - 13 7 - - NNW 992,0 3,5 0 1,2
18.09.2018 15:00:00 13,8 13,7 - - 9 5 - - NNE 991,5 27 0 0,8
18.09.2018 14:00:00 13,5 13,1 - - 9 5 - - ENE 991,9 8 0 0,6
18.09.2018 13:00:00 13,3 13,2 - - 11 6 - - ENE 992,1 6 0 0,2
18.09.2018 12:00:00 12,8 12,7 - - 16 9 - - NE 992,7 2,1 0 0,0
18.09.2018 11:00:00 12,9 12,7 - - 13 7 - - NE 993,1 1,6 0 0,4
18.09.2018 10:00:00 12,9 12,7 13,4 12,7 16 9 - - NE 993,3 3,7 0 0,6
18.09.2018 09:00:00 13,8 13,6 - - 4 2 - - NE 993,4 8 0 0,4
18.09.2018 08:00:00 13,5 13,3 - - 9 5 - - N 993,4 4,1 0 2,0
18.09.2018 07:00:00 14,2 13,9 - - 8 4 - - NE 993,6 10 0 3,6
18.09.2018 06:00:00 15,5 13,8 - - 9 5 - - SW 993,5 7 0 0,4
18.09.2018 05:00:00 17,2 13,2 - - 18 10 - - SSW 993,3 65 0 0,0
18.09.2018 04:00:00 17,3 13,3 - - 26 14 52 28 SSW 993,6 65 0 0,0
18.09.2018 03:00:00 17,3 13,3 - - 26 14 - - SSW 994,0 65 0 0,0
18.09.2018 02:00:00 16,9 13,6 - - 28 15 - - SSW 993,8 65 0 0,0
18.09.2018 01:00:00 16,8 14,0 - - 18 10 46 25 S 993,5 65 - 0,2
18.09.2018 00:00:00 16,4 14,4 - - 24 13 - - SSW 993,7 23 0 1,6
17.09.2018 23:00:00 16,5 14,4 - - 22 12 - - SSW 993,8 24 0 2,4
17.09.2018 22:00:00 16,3 13,8 - - 13 7 - - SSW 994,9 16 0 0,2
17.09.2018 21:00:00 16,1 12,6 - - 4 2 - - W 995,2 15 0 0,0
17.09.2018 20:00:00 15,1 12,0 - - 9 5 - - SE 995,8 60 0 0,0
17.09.2018 19:00:00 15,1 11,1 - - 16 9 - - SE 997,2 65 0 0,0
17.09.2018 18:00:00 14,9 10,7 - - 21 11 - - SE 998,3 50 0 0,0
17.09.2018 17:00:00 14,3 11,1 - - 11 6 - - ESE 1000,0 40 0 0,0
17.09.2018 16:00:00 13,8 10,6 - - 16 9 - - SE 1001,8 55 0 0,0
17.09.2018 15:00:00 13,4 11,2 - - 15 8 - - SSE 1003,3 22 0 0,4
17.09.2018 14:00:00 14,7 11,4 - - 8 4 - - SE 1004,4 40 0 0,2
17.09.2018 13:00:00 14,3 11,7 - - 9 5 - - SE 1004,6 35 0 0,0
17.09.2018 12:00:00 13,9 10,8 - - 11 6 - - S 1006,0 35 0 0,0
17.09.2018 11:00:00 14,0 10,5 - - 13 7 - - SSW 1006,7 60 0 0,2
17.09.2018 10:00:00 14,1 9,9 13,2 12,7 18 10 - - SSW 1006,9 55 0 0,0
17.09.2018 09:00:00 13,1 9,7 - - 5 3 - - S 1006,9 55 0 0,0
17.09.2018 08:00:00 11,8 9,1 - - 4 2 - - E 1007,1 50 0 0,0
17.09.2018 07:00:00 12,3 8,6 - - 9 5 - - SSW 1007,4 65 0 0,0
17.09.2018 06:00:00 12,4 8,2 - - 13 7 - - S 1007,5 60 0 0,0
17.09.2018 05:00:00 10,8 7,0 - - 4 2 - - SSW 1007,6 60 0 0,0
17.09.2018 04:00:00 11,3 7,1 - - 16 9 - - SW 1007,6 60 0 0,0
17.09.2018 03:00:00 10,5 7,4 - - 9 5 - - SW 1007,8 65 0 0,0
17.09.2018 02:00:00 11,9 7,6 - - 16 9 - - SSW 1007,4 65 0 0,0
17.09.2018 01:00:00 11,3 6,5 - - 15 8 - - SSW 1007,9 60 - -
17.09.2018 00:00:00 11,4 6,6 - - 15 8 - - SSW 1008,3 60 0 0,0
16.09.2018 23:00:00 10,2 6,1 - - 16 9 - - SSW 1008,1 60 0 0,0
16.09.2018 22:00:00 10,7 6,2 - - 24 13 - - SW 1008,8 60 0 0,0
16.09.2018 21:00:00 11,3 6,1 - - 26 14 - - SW 1008,5 60 0 0,0
16.09.2018 20:00:00 11,3 6,3 - - 22 12 - - SW 1008,2 50 0 0,0
16.09.2018 19:00:00 11,4 7,1 - - 21 11 - - SW 1007,9 35 0 0,0
16.09.2018 18:00:00 12,6 6,2 - - 28 15 - - W 1007,1 45 6 0,0
16.09.2018 17:00:00 13,1 6,2 - - 31 17 46 25 W 1006,6 30 24 0,0
16.09.2018 16:00:00 13,2 7,3 - - 28 15 52 28 WSW 1005,8 35 6 0,0
16.09.2018 15:00:00 13,0 9,1 - - 35 19 55 30 W 1005,7 40 24 0,4
16.09.2018 14:00:00 14,7 8,9 - - 28 15 55 30 WSW 1004,6 40 18 0,2

tt = temperature
td = dewpoint
tt -20cm = temperature -20cm
tt -100cm = temperature -100cm
ff = wind speed
fx = gusts
dd = wind direction
ppp = reduced air pressure
vv = visibility
sd = sunshine duration
rr = precipitation

Next stations